Location: Northcutt
(34.7304°N, 84.4305°W)
Time: 09:43:10
(UTC+00:00)

A-11 Canister half - Pass Details

Date: 05 October 2022
Orbit: 1524 x 1685 km, 47.3° (Epoch: 30 November)

Event Time Altitude Azimuth Distance (km) Brightness Sun altitude
Rises 22:30:54 0° 280° (W) 4,670 13.0 8.4°
Reaches altitude 10° 22:34:16 10° 289° (WNW) 3,692 12.2 7.7°
Maximum altitude 22:42:47 38° 355° (N) 2,184 9.9 6.0°
Drops below altitude 10° 22:51:30 10° 62° (ENE) 3,767 10.5 4.2°
Sets 22:54:58 0° 70° (ENE) 4,775 10.9 3.5°
